Flag Weather past 2 weeks in Yakutsk, Russia

Now
-4 °F

Light snow. Mostly cloudy.


Feels Like: -21 °F
Forecast: -20 / -7 °F
Wind: 10 mph from Northwest

Location: Jakutsk

Current Time: Nov 26, 2014 at 7:43:06 PM

Latest Report: Nov 26, 2014 at 7:00 PM


Visibility: N/A

Pressure: 29.89 "Hg

Humidity: 77%

Dew point: -9 °F

Location of YakutskLocation

Historic Weather in Yakutsk — Graph

°F

Yakutsk temperature yesterday

Maximum temperature yesterday: -6 °F (at 11:00 AM)
Minimum temperature yesterday: -17 °F (at 6:00 AM)
Average temperature yesterday: -10 °F

Past Weeks' High & Low Weather Summary

 TemperatureHumidityPressure
High0 °F (Nov 15, 2:00 PM)84% (Nov 14, 7:30 PM)30.42 "Hg (Nov 14, 7:30 PM)
Low-44 °F (Nov 13, 9:30 AM)58% (Nov 13, 12:30 AM)29.59 "Hg (Nov 25, 12:00 PM)
Average-19 °F76%30.12 "Hg
* Reported Nov 11 6:00 PM — Nov 26 6:30 PM, Yakutsk, Weather by CustomWeather, © 2014

Note: Actual official high and low records may vary slightly from our data, if they occured in-between our weather recording intervals... More about our weather records

Advertising

Yakutsk weather history for previous 24 hours

 ConditionsComfort  
Time TempWeatherWind HumidityBarometerVisibility
6:30 PM
Nov 26
-4 °FClear.8 mph77%29.89 "Hg10 mi
6:00 PM-4 °FClear.8 mph77%29.86 "Hg10 mi
5:30 PM-4 °FClear.6 mph77%29.86 "Hg10 mi
5:00 PM-4 °FClear.6 mph77%29.86 "Hg10 mi
4:30 PM-4 °FClear.6 mph77%29.86 "Hg10 mi
4:00 PM-4 °FSunny.6 mph84%29.86 "Hg10 mi
3:30 PM-4 °FSunny.6 mph84%29.86 "Hg10 mi
3:00 PM-2 °FSunny.3 mph77%29.86 "Hg10 mi
2:30 PM-2 °FSunny.6 mph77%29.83 "Hg10 mi
2:00 PM-2 °FSunny.6 mph84%29.83 "Hg10 mi
1:30 PM-2 °FLight snow. Mostly cloudy.8 mph84%29.83 "HgN/A
1:00 PM-2 °FLight snow. Overcast.6 mph84%29.80 "Hg3 mi
12:30 PM-2 °FLight snow. Overcast.6 mph84%29.80 "Hg1 mi
12:00 PM-2 °FSnow. Overcast.6 mph84%29.80 "Hg1 mi
11:30 AM-2 °FSnow. Overcast.6 mph84%29.80 "Hg1 mi
11:00 AM-2 °FSnow. Overcast.6 mph84%29.80 "Hg1 mi
10:30 AM-4 °FLight snow. Overcast.8 mph84%29.77 "Hg2 mi
10:00 AM-4 °FSunny.8 mph77%29.77 "Hg10 mi
9:30 AM-6 °FClear.6 mph77%29.77 "Hg10 mi
9:00 AM-8 °FClear.6 mph84%29.74 "Hg10 mi
8:30 AM-8 °FClear.3 mph77%29.74 "Hg10 mi
8:00 AM-9 °FClear.6 mph84%29.74 "Hg10 mi
7:30 AM-9 °FClear.6 mph84%29.74 "Hg10 mi
7:00 AM-9 °FClear.3 mph84%29.71 "Hg10 mi
6:30 AM-9 °FClear.3 mph84%29.71 "Hg10 mi
6:00 AM-9 °FClear.3 mph77%29.68 "Hg10 mi
5:30 AM-11 °FClear.3 mph84%29.68 "Hg10 mi
5:00 AM-9 °FClear.3 mph77%29.65 "Hg10 mi
4:30 AM-9 °FClear.3 mph84%29.65 "Hg10 mi
4:00 AM-8 °FClear.3 mph77%29.65 "Hg10 mi
3:30 AM-8 °FClear.1 mph84%29.65 "Hg10 mi
3:00 AM-6 °FClear.3 mph84%29.62 "Hg10 mi
2:30 AM-4 °FClear.3 mph77%29.62 "Hg10 mi
2:00 AM-4 °FClear.3 mph77%29.62 "Hg10 mi
1:30 AM-6 °FClear.1 mph84%29.62 "Hg10 mi
1:00 AM-6 °FClear.1 mph84%29.59 "Hg10 mi
12:30 AM-4 °FClear.1 mph77%29.59 "Hg10 mi
12:00 AM-4 °FClear.1 mph77%29.59 "Hg10 mi
11:30 PM
Nov 25
-6 °FClear.3 mph84%29.59 "Hg10 mi
11:00 PM-6 °FClear.3 mph84%29.59 "Hg10 mi
10:30 PM-6 °FClear.3 mph84%29.59 "Hg10 mi
10:00 PM-6 °FClear.3 mph77%29.59 "Hg10 mi
9:30 PM-8 °FClear.3 mph84%29.59 "Hg10 mi
9:00 PM-8 °FClear.3 mph84%29.59 "Hg10 mi
8:30 PM-9 °FClear.1 mph84%29.59 "Hg10 mi
8:00 PM-9 °FClear.3 mph84%29.59 "Hg10 mi
7:00 PM-8 °FClear.3 mph77%29.59 "Hg10 mi
Weather by CustomWeather, © 2014

See weather overviewHow to use our weather pages